• In India
  • List of Countries
  • For 7 days
  • Water Temperature
  • Satellite Maps
  • Weather Map
  • Weather Widgets
  • user-avatar
    Login

    Hourly Weather Gjirokaster

    Today, 18 January, Thursday

    Time Temperature Precipitation Wind Pressure Humidity
    00:00 -3°C° 0.5 mm 9 mps 641 mmHg 83%
    01:00 -4°C° 0 mm 10 mps 641 mmHg 79%
    02:00 -5°C° 0.1 mm 10 mps 642 mmHg 79%
    03:00 -5°C° 0.1 mm 10 mps 642 mmHg 79%
    04:00 -7°C° 0.1 mm 10 mps 643 mmHg 79%
    05:00 -8°C° 0 mm 9 mps 644 mmHg 78%
    06:00 -8°C° 0 mm 9 mps 645 mmHg 77%
    07:00 -8°C° 0 mm 8 mps 645 mmHg 76%
    08:00 -8°C° 0 mm 9 mps 646 mmHg 68%
    09:00 -6°C° 0 mm 9 mps 647 mmHg 59%
    10:00 -5°C° 0 mm 9 mps 648 mmHg 51%
    11:00 -5°C° 0 mm 9 mps 649 mmHg 49%
    12:00 -4°C° 0 mm 8 mps 650 mmHg 47%
    13:00 -2°C° 0 mm 8 mps 650 mmHg 46%
    14:00 -3°C° 0 mm 7 mps 650 mmHg 49%
    15:00 -3°C° 0 mm 6 mps 650 mmHg 53%
    16:00 -4°C° 0 mm 5 mps 650 mmHg 57%
    17:00 -4°C° 0 mm 4 mps 650 mmHg 58%
    18:00 -5°C° 0 mm 3 mps 650 mmHg 59%
    19:00 -5°C° 0 mm 2 mps 650 mmHg 60%
    20:00 -5°C° 0 mm 2 mps 650 mmHg 58%
    21:00 -5°C° 0 mm 2 mps 650 mmHg 56%
    22:00 -3°C° 0 mm 1 mps 650 mmHg 55%
    23:00 -5°C° 0 mm 2 mps 650 mmHg 54%

    Tomorrow, 19 January, Friday

    Time Temperature Precipitation Wind Pressure Humidity
    00:00 -4°C° 0 mm 2 mps 650 mmHg 53%
    01:00 -4°C° 0 mm 2 mps 650 mmHg 52%
    02:00 -4°C° 0 mm 2 mps 650 mmHg 52%
    03:00 -5°C° 0 mm 3 mps 650 mmHg 53%
    04:00 -5°C° 0 mm 3 mps 650 mmHg 53%
    05:00 -5°C° 0 mm 3 mps 650 mmHg 55%
    06:00 -5°C° 0 mm 4 mps 650 mmHg 57%
    07:00 -5°C° 0 mm 4 mps 650 mmHg 59%
    08:00 -3°C° 0 mm 4 mps 650 mmHg 61%
    09:00 -1°C° 0 mm 4 mps 650 mmHg 63%
    10:00 0°C° 0 mm 4 mps 651 mmHg 64%
    11:00 +1°C° 0 mm 4 mps 651 mmHg 66%
    12:00 +3°C° 0 mm 4 mps 650 mmHg 68%
    13:00 +3°C° 0 mm 4 mps 650 mmHg 70%
    14:00 +3°C° 0 mm 4 mps 650 mmHg 75%
    15:00 +1°C° 0 mm 4 mps 650 mmHg 79%
    16:00 0°C° 0 mm 4 mps 649 mmHg 84%
    17:00 0°C° 0 mm 4 mps 649 mmHg 86%
    18:00 -1°C° 0 mm 4 mps 649 mmHg 89%
    19:00 -2°C° 0 mm 4 mps 649 mmHg 91%
    20:00 -1°C° 0 mm 4 mps 649 mmHg 91%
    21:00 -1°C° 0 mm 4 mps 649 mmHg 91%
    22:00 -1°C° 0 mm 4 mps 649 mmHg 92%
    23:00 -1°C° 0.1 mm 4 mps 649 mmHg 92%

    Day after tomorrow, 20 January, Saturday

    Time Temperature Precipitation Wind Pressure Humidity
    00:00 -1°C° 0.1 mm 4 mps 649 mmHg 93%
    01:00 -1°C° 0.1 mm 4 mps 649 mmHg 93%
    02:00 -1°C° 0.1 mm 4 mps 649 mmHg 94%
    03:00 -1°C° 0.1 mm 4 mps 648 mmHg 94%
    04:00 -1°C° 0.1 mm 4 mps 648 mmHg 95%
    05:00 -1°C° 0.2 mm 4 mps 648 mmHg 95%
    06:00 -1°C° 0.2 mm 4 mps 648 mmHg 95%
    07:00 0°C° 0.2 mm 4 mps 648 mmHg 95%
    08:00 0°C° 0.2 mm 4 mps 648 mmHg 94%
    09:00 +2°C° 0.2 mm 3 mps 649 mmHg 93%
    10:00 +2°C° 0.2 mm 3 mps 649 mmHg 93%
    11:00 +3°C° 0.3 mm 3 mps 648 mmHg 91%
    12:00 +3°C° 0.3 mm 3 mps 648 mmHg 90%
    13:00 +3°C° 0.3 mm 3 mps 648 mmHg 88%
    14:00 +4°C° 0.3 mm 2 mps 648 mmHg 90%
    15:00 +4°C° 0.3 mm 2 mps 648 mmHg 91%
    16:00 +5°C° 0.3 mm 1 mps 648 mmHg 92%
    17:00 +4°C° 0 mm 1 mps 648 mmHg 93%
    18:00 +4°C° 0 mm 1 mps 648 mmHg 94%
    19:00 +2°C° 0 mm 2 mps 648 mmHg 95%
    20:00 +2°C° 0 mm 2 mps 647 mmHg 95%
    21:00 +2°C° 0 mm 2 mps 647 mmHg 95%
    22:00 +2°C° 0 mm 2 mps 647 mmHg 95%
    23:00 +1°C° 0.2 mm 3 mps 647 mmHg 95%

    21 January, Sunday

    Time Temperature Precipitation Wind Pressure Humidity
    00:00 +1°C° 0.2 mm 3 mps 647 mmHg 96%
    01:00 +1°C° 0.2 mm 3 mps 646 mmHg 96%
    02:00 +1°C° 0.3 mm 3 mps 646 mmHg 96%
    03:00 +1°C° 0.3 mm 3 mps 645 mmHg 96%
    04:00 0°C° 0.3 mm 4 mps 645 mmHg 96%
    05:00 0°C° 0.3 mm 4 mps 644 mmHg 96%
    06:00 0°C° 0.3 mm 4 mps 644 mmHg 95%
    07:00 0°C° 0.3 mm 4 mps 643 mmHg 95%
    08:00 0°C° 0.2 mm 4 mps 643 mmHg 93%
    09:00 +1°C° 0.2 mm 5 mps 643 mmHg 90%
    10:00 +1°C° 0.2 mm 5 mps 642 mmHg 88%
    11:00 +1°C° 1.9 mm 5 mps 642 mmHg 89%
    12:00 +1°C° 1.9 mm 5 mps 641 mmHg 91%
    13:00 0°C° 1.9 mm 5 mps 640 mmHg 92%
    14:00 0°C° 3.7 mm 4 mps 639 mmHg 93%
    15:00 0°C° 3.7 mm 4 mps 639 mmHg 95%
    16:00 0°C° 3.7 mm 3 mps 638 mmHg 96%
    17:00 0°C° 0.8 mm 3 mps 639 mmHg 95%
    18:00 0°C° 0.8 mm 3 mps 639 mmHg 95%
    19:00 0°C° 0.8 mm 3 mps 639 mmHg 94%
    20:00 -1°C° 0.3 mm 4 mps 639 mmHg 93%
    21:00 -1°C° 0.3 mm 5 mps 640 mmHg 93%
    22:00 -1°C° 0.3 mm 5 mps 640 mmHg 92%
    23:00 -2°C° 0.1 mm 5 mps 640 mmHg 90%

    22 January, Monday

    Time Temperature Precipitation Wind Pressure Humidity
    00:00 -2°C° 0.1 mm 5 mps 641 mmHg 89%
    01:00 -2°C° 0.1 mm 5 mps 641 mmHg 87%
    02:00 -4°C° 0 mm 5 mps 641 mmHg 85%
    03:00 -5°C° 0 mm 5 mps 642 mmHg 84%
    04:00 -6°C° 0 mm 5 mps 642 mmHg 82%
    05:00 -6°C° 0 mm 5 mps 642 mmHg 81%
    06:00 -6°C° 0 mm 5 mps 643 mmHg 80%
    07:00 -7°C° 0 mm 5 mps 643 mmHg 79%
    08:00 -5°C° 0 mm 5 mps 644 mmHg 73%
    09:00 -4°C° 0 mm 5 mps 645 mmHg 67%
    10:00 -2°C° 0 mm 5 mps 645 mmHg 62%
    11:00 -1°C° 0 mm 5 mps 646 mmHg 60%
    12:00 -1°C° 0 mm 6 mps 646 mmHg 59%
    13:00 -1°C° 0 mm 6 mps 646 mmHg 57%
    14:00 -1°C° 0 mm 6 mps 646 mmHg 60%
    15:00 -2°C° 0 mm 6 mps 646 mmHg 63%
    16:00 -2°C° 0 mm 5 mps 647 mmHg 66%
    17:00 -4°C° 0 mm 5 mps 647 mmHg 68%
    18:00 -5°C° 0 mm 5 mps 647 mmHg 70%
    19:00 -6°C° 0 mm 5 mps 647 mmHg 72%
    20:00 -5°C° 0 mm 4 mps 648 mmHg 72%
    21:00 -7°C° 0 mm 4 mps 648 mmHg 71%
    22:00 -7°C° 0 mm 4 mps 649 mmHg 70%
    23:00 -7°C° 0 mm 4 mps 649 mmHg 70%

    23 January, Tuesday

    Time Temperature Precipitation Wind Pressure Humidity
    00:00 -7°C° 0 mm 4 mps 649 mmHg 69%
    01:00 -7°C° 0 mm 3 mps 649 mmHg 68%
    02:00 -7°C° 0 mm 3 mps 649 mmHg 68%
    03:00 -7°C° 0 mm 3 mps 650 mmHg 67%
    04:00 -7°C° 0 mm 3 mps 650 mmHg 67%
    05:00 -7°C° 0 mm 3 mps 650 mmHg 66%
    06:00 -7°C° 0 mm 3 mps 651 mmHg 65%
    07:00 -7°C° 0 mm 3 mps 651 mmHg 64%
    08:00 -5°C° 0 mm 3 mps 652 mmHg 59%
    09:00 -2°C° 0 mm 3 mps 652 mmHg 53%
    10:00 -1°C° 0 mm 2 mps 653 mmHg 47%
    11:00 +1°C° 0 mm 2 mps 653 mmHg 45%
    12:00 +2°C° 0 mm 2 mps 654 mmHg 42%
    13:00 +3°C° 0 mm 2 mps 654 mmHg 39%
    14:00 +2°C° 0 mm 2 mps 654 mmHg 43%
    15:00 +2°C° 0 mm 2 mps 654 mmHg 48%
    16:00 +1°C° 0 mm 2 mps 654 mmHg 52%
    17:00 -1°C° 0 mm 3 mps 654 mmHg 54%
    18:00 -4°C° 0 mm 3 mps 654 mmHg 55%
    19:00 -5°C° 0 mm 3 mps 654 mmHg 56%
    20:00 -5°C° 0 mm 3 mps 655 mmHg 55%
    21:00 -4°C° 0 mm 2 mps 655 mmHg 54%
    22:00 -5°C° 0 mm 2 mps 655 mmHg 52%
    23:00 -5°C° 0 mm 2 mps 655 mmHg 50%
    Show more